www.pogodaiklimat.ru

Погода и климат >> Архив погоды >> Россия >> Нижегородская область >> Лукоянов


ПОГОДА в Лукоянове

  • Прогноз погоды в Лукоянове
  • Монитор погоды в Лукоянове
  • Климат города

АРХИВ ПОГОДЫ в Лукоянове

Время (UTC), дата Ветер
(напр.,м/с)
 
Видим.   Явления Облачность Т
(С)
Тd
(С)
f
(%)
Тe
(С)
Тes
(С)
Комфортность P
(гПа)
Po
(гПа)
Тmin
(С)
Tmax
(С)
R
(мм)
R24
(мм)
S
(см)
03 11.08 З 2-3
{4}
10 км ясно +15.9 +12.3 79 +16 +17 1023.7 997.7 +14.6
06 11.08 З 3-5
{7}
20 км ясно +22.8 +14.9 61 +27 +33 душно 1022.8 997.5
09 11.08 З 4-8
{9}
20 км 3/3 1000 м
[Cu med, cong]
+26.8 +12.5 41 +28 +34 жарко 1021.4 996.5
12 11.08 З 4-8
{10}
20 км ясно +27.8 +9.2 31 +28 +33 жарко 1020.0 995.1
15 11.08 З 3-7
{9}
20 км ясно +27.0 +8.0 30 +27 +28 жарко 1018.6 993.6 +28.0
18 11.08 З 1-2
{7}
10 км ясно +18.8 +11.5 63 +21 +21 комфорт 1019.6 993.9
21 11.08 З 1-2
{3}
10 км ясно +15.9 +11.1 73 +17 +17 1019.4 993.5
00 12.08 З 2-2
{2}
10 км ясно +14.7 +10.7 77 +14 +14 1019.0 993.0
03 12.08 З 1-2
{3}
20 км ясно +15.0 +10.4 74 +16 +17 1018.8 992.8 +13.7
06 12.08 ЮЗ 1-3
{3}
20 км ясно +22.7 +13.0 54 +26 +35 жарко 1017.0 991.8
09 12.08 ЮЗ 3-7
{8}
20 км ясно +26.9 +8.5 31 +27 +37 жарко 1015.7 990.8
12 12.08 З 2-5
{7}
20 км ясно +28.2 +8.0 28 +28 +36 жарко 1014.0 989.3
15 12.08 ЮЗ 3-6
{7}
20 км ясно +27.1 +7.6 29 +27 +28 жарко 1012.6 987.8 +28.3
18 12.08 ЮЗ 1-2
{5}
10 км ясно +20.4 +10.5 53 +23 +23 комфорт 1012.4 987.1
21 12.08 Ю 1-2
{3}
10 км ясно +19.0 +11.1 60 +21 +21 комфорт 1011.5 986.1
00 13.08 З 1-2
{3}
10 км ясно +16.4 +11.4 72 +17 +17 1011.1 985.5
03 13.08 З 1-2
{3}
20 км 3/0
[Ci fib]
+16.0 +11.8 76 +17 +18 1011.4 985.8 +14.5
06 13.08 З 2-5
{6}
20 км 6/3 1000 м
[Cu hum Ci fib]
+20.5 +11.7 57 +23 +28 комфорт 1011.0 985.8
09 13.08 З 4-7
{9}
20 км 5/4 1000 м
[Cu med, cong Ci fib]
+24.6 +9.2 38 +25 +30 комфорт 1010.2 985.3
12 13.08 З 3-7
{9}
20 км 5/3 1000 м
[Cu hum Ci fib]
+25.6 +7.0 31 +26 +30 жарко 1009.2 984.4
15 13.08 З 3-6
{10}
20 км 8/0
[Ci fib]
+22.6 +6.4 35 +23 +24 комфорт 1009.1 984.0 +26.2
18 13.08 З 2-5
{7}
10 км 10/0
[Ci fib]
+17.8 +8.2 53 +18 +18 1010.2 984.7
21 13.08 З 1-3
{5}
10 км 10/0
[Ci fib]
+15.7 +8.2 61 +16 +16 1011.0 985.3
00 14.08 З 1-3
{4}
10 км 10/3 600 м
[Cb cap Ac und]
+14.3 +8.4 68 +15 +15 1011.5 985.7
03 14.08 З 1-3
{4}
10 км 10/0
[Ci fib]
+13.5 +8.9 74 +14 +14 1012.3 986.4 +13.3
06 14.08 З 3-5
{5}
20 км 3/0
[Ac trans]
+17.6 +10.0 61 +18 +23 1013.3 987.7
09 14.08 З 4-8
{8}
20 км 8/8 1000 м
[Cu med, cong]
+20.1 +8.6 47 +21 +23 комфорт 1013.6 988.2
12 14.08 СЗ 4-7
{9}
20 км 3/3 1000 м
[Cu med, cong]
+23.0 +6.4 34 +24 +27 комфорт 1013.7 988.5
15 14.08 СЗ 2-6
{8}
20 км ясно +21.7 +6.4 37 +22 +23 комфорт 1014.5 989.2 +23.0
18 14.08 ЮЗ 1-1
{6}
10 км ясно +14.9 +9.0 68 +15 +15 1016.4 990.5
21 14.08 ЮЗ 1-2
{2}
10 км ясно +12.0 +8.4 79 +12 +12 1017.2 991.0
00 15.08 ЮЗ 1-2
{2}
10 км ясно +12.6 +7.4 71 +13 +13 1017.8 991.7
03 15.08 ЮЗ 1-3
{3}
10 км 3/0
[Ci fib]
+13.5 +7.8 68 +14 +15 1018.2 992.2 +11.3
06 15.08 ЮЗ 2-4
{4}
20 км 3/0
[Ci fib]
+21.0 +9.2 47 +23 +30 комфорт 1017.6 992.2
09 15.08 З 3-7
{8}
20 км 5/3 1000 м
[Cu med, cong Ci fib]
+24.9 +8.1 34 +25 +32 комфорт 1016.5 991.5
12 15.08 ЮЗ 3-7
{8}
20 км 5/4 1000 м
[Cu med, cong Ci fib]
+27.2 +9.0 32 +27 +31 жарко 1014.7 989.9
15 15.08 Ю 3-5
{8}
20 км 10/3 600 м
[Cb cap Ac und]
+25.5 +10.0 38 +26 +26 жарко 1013.6 988.7 +27.5
18 15.08 ЮЗ 1-3
{6}
10 км 10/3 600 м
[Cb cap Ac cuf Ci fib]
+22.0 +12.1 53 +24 +24 комфорт 1013.9 988.7
21 15.08 Ю 4-8
{8}
10 км ясно +21.0 +11.4 54 +23 +23 комфорт 1012.0 986.8
00 16.08 Ю 4-8
{9}
10 км 10/10 600 м
[Cb cap]
+20.7 +11.1 54 +23 +23 комфорт 1011.7 986.4
03 16.08 З 2-4
{10}
10 км слабый ливневой дождь 10/8 600 м
[Cb cap Ac cuf]
+18.6 +11.8 65 +20 +20 1012.9 987.4 +18.6 1
06 16.08 ЮЗ 3-7
{7}
20 км в посл. час гроза {ливн. осадки} 10/3 600 м
[Cb cap Ac und]
+20.8 +15.6 72 +24 +26 комфорт 1012.9 987.6
09 16.08 З 3-7
{10}
20 км 8/0
[Ac und]
+24.5 +15.2 56 +27 +32 жарко 1013.1 988.1
12 16.08 З 3-6
{11}
20 км 10/3 600 м
[Cb cap Ac cuf Ci fib]
+24.3 +12.3 47 +26 +28 жарко 1013.9 988.9
15 16.08 З 2-5
{8}
10 км 10/4 600 м
[Cb cap Ac und]
+22.3 +14.1 60 +26 +26 жарко 1014.5 989.3 +26.0 0.6
18 16.08 С 2-4
{6}
10 км 10/4 600 м
[Cb cap Ac und]
+18.0 +14.9 82 +19 +19 1016.9 991.3
21 16.08 С 2-4
{5}
10 км 10/0
[Ac und]
+15.6 +14.0 90 +15 +15 1018.0 992.2
00 17.08 С 2-3
{5}
10 км 10/0
[Ac und]
+13.7 +13.0 96 +13 +13 1019.6 993.5
03 17.08 С 2-4
{5}
20 км 8/0
[Ci fib]
+12.4 +11.4 94 +11 +12 1021.4 995.2 +11.7
06 17.08 СВ 3-6
{7}
20 км 5/5 1000 м
[Cu med, cong]
+17.8 +11.2 65 +18 +21 1021.8 996.0
09 17.08 С 3-6
{7}
20 км 8/8 1000 м
[Cu med, cong]
+19.7 +9.5 52 +21 +23 комфорт 1022.1 996.5
12 17.08 С 2-5
{6}
20 км 8/8 600 м
[Cb cap]
+21.2 +9.7 48 +23 +24 комфорт 1021.6 996.2
15 17.08 СВ 2-5
{6}
20 км 4/4 600 м
[Cu hum]
+20.0 +7.6 45 +22 +22 комфорт 1021.6 996.0 +23.0
18 17.08 С 1-3
{5}
10 км ясно +14.7 +8.1 65 +15 +15 1022.5 996.4
21 17.08 С 1-3
{4}
10 км ясно +12.8 +8.0 73 +13 +13 1023.2 997.0

 

Местоположение метеостанции Лукоянов (Нижегородская область, Россия): широта 55.03 долгота 44.50 высота над уровнем моря 219 м.

В архиве по умолчанию представлена погода в Лукоянове за последнюю неделю. Архивные данные за месяц целиком и за предыдущие месяцы, начиная с января 2011 года, Вы можете получить, выбрав интересующий диапазон дат из раскрывающегося списка и нажав кнопку "Ввод!".


*Определитесь, кто Вы:
робот инопланетянин человек

Внимание! Время в таблицах - всемирное. Для получения местного времени необходимо прибавить поправку, которая в Лукоянове равна 3 ч.

Смотрите также архив погоды в соседних городах и на ближайших метеорологических станциях:

Погода в Большом Болдино (Нижегородская область, Россия) (52 км)
Погода в Арзамасе (Нижегородская область, Россия) (59 км)
Погода в Краснослободске (Мордовия, Россия) (82 км)
Погода в Сергаче (Нижегородская область, Россия) (84 км)
Погода в Дальнем Константиново (Нижегородская область, Россия) (90 км)
Погода в Темникове (Мордовия, Россия) (93 км)
Погода в Саранске (Мордовия, Россия) (111 км)
Погода в Лысково (Нижегородская область, Россия) (114 км)
Погода в Порецком (Чувашия, Россия) (118 км)
Погода в Инсаре (Мордовия, Россия) (129 км)

Пояснения к столбцам:

Ветер - указаны скорость ветра в м/с - средняя за 10 мин, порывы в срок и между сроками (в фигурных скобках) и направление, откуда дует ветер: С - северный, СВ - северо-восточный, В - восточный, ЮВ - юго-восточный, Ю - южный, ЮЗ - юго-западный, З - западный, СЗ - северо-западный.
Видимость - горизонтальная дальность видимости в метрах или километрах. При видимости от 1 до 10 км при отсутствии осадков обычно наблюдается дымка, при ухудшении видимости до 1 км и менее - туман. В сухую погоду видимость может ухудшаться дымом, пылью или мглою.
Явления - указаны атмосферные явления, наблюдавшиеся в срок или в последний час перед сроком; фигурными скобками обозначены явления, наблюдавшиеся между сроками (за 1-3 часа до срока); квадратными скобками обозначены град или гололедные отложения с указанием их диаметра в мм.
Облачность - указаны через наклонную черту общая и нижняя облачность в баллах и высота нижней границы облаков в метрах; квадратными скобками обозначены формы облаков: Ci - перистые, Cs - перисто-слоистые, Cc - перисто-кучевые, Ac - высококучевые, As - высокослоистые, Sc - слоисто-кучевые, Ns - слоисто-дождевые, Cu - кучевые, Cb - кучево-дождевые. Подробнее классификацию облаков см. в Атласе облаков (PDF).
T - Температура воздуха - температура, измеренная на высоте 2 м над землей.
Td - Температура точки росы - температура, при понижении до которой содержащийся в воздухе водяной пар достигнет насыщения.
f - Относительная влажность воздуха - влажноcть воздуха, измеренная на высоте 2 м над землей.
Te - Эффективная температура - температура, которую ощущает одетый по сезону человек в тени. Характеристика душности погоды. При расчете учитывается влияние влажности воздуха и скорости ветра на теплоощущения человека.
Tes - Эффективная температура на солнце - температура, которую ощущает человек, с поправкой на солнечный нагрев. Характеристика знойности погоды. Зависит от высоты солнца над горизонтом, облачности и скорости ветра. Ночью, в пасмурную погоду, а также при ветре 12 м/с и более поправка равна нулю.
P - Атмосферное давление - приведенное к уровню моря атмосферное давление.
Po - Атмосферное давление - измеренное на уровне метеостанции атмосферное давление.
Tmin - Минимальная температура - минимум температуры воздуха на высоте 2 м над землей.
Tmax - Максимальная температура - максимум температуры воздуха на высоте 2 м над землей.
R - Количество осадков - Количество выпавших осадков за период времени, мм. При наведении курсора мыши на число - период времени, за который выпало указанное количество осадков.
R24 - Количество осадков - Количество выпавших осадков за 24 часа, мм.
S - Снежный покров - Высота снежного покрова, см. При наведении курсора мыши на число - состояние снежного покрова и степень покрытия местности в баллах.